When you browse on this site, cookies collect data to enhance your experience and personalize the content and advertising you see.
Visit our Privacy Policy to learn more. By continuing to use the site, you agree to this use of cookies and data.

Meteo pe oră la

Astăzi, 21 Septembrie, Luni

Timp Temperatura Precipitaţii Vânt Presiune Umiditate
00:00 +26°C° 0 mm 2 m/s 759 mmHg 96%
01:00 +26°C° 0 mm 2 m/s 758 mmHg 96%
02:00 +25°C° 0 mm 2 m/s 758 mmHg 97%
03:00 +25°C° 0 mm 2 m/s 758 mmHg 97%
04:00 +25°C° 0 mm 2 m/s 758 mmHg 97%
05:00 +25°C° 0 mm 2 m/s 758 mmHg 98%
06:00 +25°C° 0 mm 2 m/s 759 mmHg 98%
07:00 +28°C° 0 mm 2 m/s 759 mmHg 85%
08:00 +30°C° 0 mm 2 m/s 759 mmHg 73%
09:00 +34°C° 0 mm 2 m/s 759 mmHg 60%
10:00 +34°C° 0 mm 1 m/s 759 mmHg 54%
11:00 +36°C° 0 mm 1 m/s 759 mmHg 48%
12:00 +39°C° 0 mm 1 m/s 758 mmHg 41%
13:00 +38°C° 0 mm 2 m/s 758 mmHg 45%
14:00 +37°C° 0 mm 2 m/s 757 mmHg 48%
15:00 +36°C° 0 mm 3 m/s 757 mmHg 52%
16:00 +34°C° 0 mm 3 m/s 757 mmHg 60%
17:00 +33°C° 0 mm 3 m/s 757 mmHg 68%
18:00 +30°C° 0 mm 3 m/s 757 mmHg 76%
19:00 +29°C° 0.1 mm 3 m/s 758 mmHg 79%
20:00 +28°C° 0.1 mm 2 m/s 758 mmHg 82%
21:00 +28°C° 0.1 mm 2 m/s 759 mmHg 85%
22:00 +27°C° 0 mm 2 m/s 759 mmHg 86%
23:00 +27°C° 0 mm 2 m/s 759 mmHg 88%

Mâine, 22 Septembrie, Marţi

Timp Temperatura Precipitaţii Vânt Presiune Umiditate
00:00 +26°C° 0 mm 2 m/s 759 mmHg 89%
01:00 +26°C° 0 mm 1 m/s 758 mmHg 90%
02:00 +26°C° 0 mm 1 m/s 758 mmHg 92%
03:00 +25°C° 0 mm 1 m/s 758 mmHg 94%
04:00 +25°C° 0 mm 1 m/s 758 mmHg 95%
05:00 +25°C° 0 mm 1 m/s 758 mmHg 96%
06:00 +23°C° 0 mm 0 m/s 759 mmHg 96%
07:00 +26°C° 0 mm 0 m/s 759 mmHg 83%
08:00 +30°C° 0 mm 0 m/s 759 mmHg 69%
09:00 +33°C° 0 mm 0 m/s 759 mmHg 56%
10:00 +35°C° 0 mm 1 m/s 759 mmHg 52%
11:00 +37°C° 0 mm 2 m/s 758 mmHg 48%
12:00 +38°C° 0 mm 2 m/s 758 mmHg 44%
13:00 +37°C° 0 mm 3 m/s 758 mmHg 48%
14:00 +36°C° 0 mm 3 m/s 757 mmHg 52%
15:00 +35°C° 0 mm 3 m/s 756 mmHg 56%
16:00 +33°C° 0.1 mm 3 m/s 756 mmHg 63%
17:00 +31°C° 0.1 mm 3 m/s 757 mmHg 70%
18:00 +29°C° 0.1 mm 2 m/s 757 mmHg 77%
19:00 +29°C° 0 mm 2 m/s 757 mmHg 80%
20:00 +28°C° 0 mm 2 m/s 758 mmHg 84%
21:00 +28°C° 0 mm 2 m/s 758 mmHg 87%
22:00 +27°C° 0 mm 1 m/s 758 mmHg 89%
23:00 +27°C° 0 mm 1 m/s 758 mmHg 91%

Poimâine, 23 Septembrie, Miercuri

Timp Temperatura Precipitaţii Vânt Presiune Umiditate
00:00 +26°C° 0 mm 1 m/s 758 mmHg 93%
01:00 +26°C° 0 mm 1 m/s 758 mmHg 94%
02:00 +26°C° 0 mm 1 m/s 757 mmHg 96%
03:00 +25°C° 0 mm 1 m/s 757 mmHg 97%
04:00 +25°C° 0 mm 1 m/s 757 mmHg 97%
05:00 +25°C° 0 mm 1 m/s 757 mmHg 97%
06:00 +25°C° 0 mm 1 m/s 757 mmHg 97%
07:00 +26°C° 0 mm 0 m/s 758 mmHg 83%
08:00 +30°C° 0 mm 0 m/s 758 mmHg 68%
09:00 +33°C° 0 mm 0 m/s 758 mmHg 54%
10:00 +36°C° 0 mm 1 m/s 758 mmHg 51%
11:00 +37°C° 0 mm 2 m/s 758 mmHg 48%
12:00 +38°C° 0 mm 2 m/s 757 mmHg 45%
13:00 +37°C° 0 mm 3 m/s 757 mmHg 48%
14:00 +36°C° 0 mm 3 m/s 756 mmHg 51%
15:00 +35°C° 0 mm 3 m/s 756 mmHg 54%
16:00 +33°C° 0 mm 3 m/s 756 mmHg 60%
17:00 +31°C° 0 mm 3 m/s 756 mmHg 67%
18:00 +30°C° 0 mm 3 m/s 756 mmHg 73%
19:00 +29°C° 0 mm 2 m/s 757 mmHg 78%
20:00 +28°C° 0 mm 2 m/s 757 mmHg 82%
21:00 +27°C° 0 mm 2 m/s 758 mmHg 87%
22:00 +27°C° 0 mm 1 m/s 757 mmHg 89%
23:00 +27°C° 0 mm 1 m/s 757 mmHg 91%

24 Septembrie, Joi

Timp Temperatura Precipitaţii Vânt Presiune Umiditate
00:00 +24°C° 0 mm 0 m/s 757 mmHg 93%
01:00 +24°C° 0 mm 0 m/s 757 mmHg 94%
02:00 +24°C° 0 mm 0 m/s 757 mmHg 95%
03:00 +24°C° 0 mm 0 m/s 756 mmHg 96%
04:00 +26°C° 0 mm 1 m/s 756 mmHg 96%
05:00 +25°C° 0 mm 1 m/s 757 mmHg 96%
06:00 +25°C° 0 mm 1 m/s 757 mmHg 96%
07:00 +29°C° 0 mm 1 m/s 757 mmHg 82%
08:00 +32°C° 0 mm 1 m/s 757 mmHg 68%
09:00 +35°C° 0 mm 1 m/s 758 mmHg 54%
10:00 +36°C° 0 mm 1 m/s 758 mmHg 51%
11:00 +37°C° 0 mm 2 m/s 757 mmHg 48%
12:00 +38°C° 0 mm 3 m/s 757 mmHg 45%
13:00 +37°C° 0 mm 3 m/s 756 mmHg 49%
14:00 +36°C° 0 mm 3 m/s 756 mmHg 53%
15:00 +35°C° 0 mm 4 m/s 755 mmHg 56%
16:00 +33°C° 0 mm 3 m/s 756 mmHg 63%
17:00 +31°C° 0 mm 3 m/s 756 mmHg 70%
18:00 +30°C° 0 mm 3 m/s 756 mmHg 77%
19:00 +29°C° 0.4 mm 2 m/s 757 mmHg 83%
20:00 +28°C° 0.4 mm 2 m/s 757 mmHg 88%
21:00 +27°C° 0.4 mm 2 m/s 758 mmHg 94%
22:00 +27°C° 0.4 mm 2 m/s 758 mmHg 95%
23:00 +27°C° 0.4 mm 1 m/s 758 mmHg 96%

25 Septembrie, Vineri

Timp Temperatura Precipitaţii Vânt Presiune Umiditate
00:00 +26°C° 0.4 mm 1 m/s 758 mmHg 97%
01:00 +26°C° 0.1 mm 1 m/s 757 mmHg 97%
02:00 +26°C° 0.1 mm 1 m/s 757 mmHg 97%
03:00 +26°C° 0.1 mm 1 m/s 757 mmHg 97%
04:00 +26°C° 0 mm 1 m/s 757 mmHg 97%
05:00 +26°C° 0 mm 1 m/s 757 mmHg 97%
06:00 +25°C° 0 mm 1 m/s 757 mmHg 97%
07:00 +28°C° 0 mm 1 m/s 758 mmHg 85%
08:00 +31°C° 0 mm 1 m/s 758 mmHg 73%
09:00 +33°C° 0 mm 1 m/s 759 mmHg 61%
10:00 +33°C° 0.5 mm 1 m/s 758 mmHg 64%
11:00 +34°C° 0.5 mm 2 m/s 758 mmHg 67%
12:00 +35°C° 0.5 mm 2 m/s 758 mmHg 70%
13:00 +32°C° 1.8 mm 2 m/s 757 mmHg 76%
14:00 +31°C° 1.8 mm 2 m/s 757 mmHg 83%
15:00 +30°C° 1.8 mm 3 m/s 756 mmHg 89%
16:00 +29°C° 1 mm 3 m/s 756 mmHg 90%
17:00 +28°C° 1 mm 3 m/s 756 mmHg 91%
18:00 +28°C° 1 mm 3 m/s 757 mmHg 92%
19:00 +27°C° 0.3 mm 3 m/s 757 mmHg 93%
20:00 +27°C° 0.3 mm 3 m/s 758 mmHg 93%
21:00 +27°C° 0.3 mm 3 m/s 759 mmHg 93%
22:00 +27°C° 0 mm 2 m/s 758 mmHg 94%
23:00 +26°C° 0 mm 2 m/s 758 mmHg 95%

26 Septembrie, Sâmbătă

Timp Temperatura Precipitaţii Vânt Presiune Umiditate
00:00 +26°C° 0 mm 2 m/s 758 mmHg 96%
01:00 +26°C° 0 mm 2 m/s 758 mmHg 96%
02:00 +26°C° 0 mm 2 m/s 758 mmHg 97%
03:00 +25°C° 0 mm 2 m/s 757 mmHg 98%
04:00 +25°C° 0 mm 2 m/s 758 mmHg 98%
05:00 +25°C° 0 mm 2 m/s 758 mmHg 98%
06:00 +25°C° 0 mm 1 m/s 758 mmHg 98%
07:00 +28°C° 0 mm 1 m/s 758 mmHg 87%
08:00 +30°C° 0 mm 2 m/s 759 mmHg 76%
09:00 +34°C° 0 mm 2 m/s 759 mmHg 64%
10:00 +36°C° 0 mm 2 m/s 758 mmHg 56%
11:00 +38°C° 0 mm 2 m/s 758 mmHg 48%
12:00 +40°C° 0 mm 2 m/s 758 mmHg 40%
13:00 +38°C° 0.6 mm 2 m/s 757 mmHg 49%
14:00 +36°C° 0.6 mm 3 m/s 756 mmHg 57%
15:00 +34°C° 0.6 mm 4 m/s 756 mmHg 66%
16:00 +32°C° 4.3 mm 4 m/s 756 mmHg 76%
17:00 +29°C° 4.3 mm 4 m/s 756 mmHg 86%
18:00 +27°C° 4.3 mm 3 m/s 756 mmHg 96%
19:00 +27°C° 0.3 mm 3 m/s 757 mmHg 95%
20:00 +27°C° 0.3 mm 2 m/s 757 mmHg 95%
21:00 +27°C° 0.3 mm 2 m/s 758 mmHg 95%
22:00 +26°C° 0 mm 2 m/s 758 mmHg 95%
23:00 +26°C° 0 mm 2 m/s 758 mmHg 96%
Arată mai mult